Orbital Elements at Epoch 2459200.5 (2020-Dec-17.0) TDB
Reference: JPL 11 (heliocentric ecliptic J2000)
Element | Value | Uncertainty (1-sigma) | Units |
e | .2288876629716883 | 4.8828e-08 | |
a | 3.16514430517294 | 3.3382e-08 | au |
q | 2.440681822193758 | 1.4453e-07 | au |
i | 15.37218177165765 | 6.8609e-06 | deg |
node | .3548834028676475 | 1.9389e-05 | deg |
peri | 74.20560905782982 | 2.5518e-05 | deg |
M | 212.2514042702004 | 1.5903e-05 | deg |
tp | 2460044.630438277665 (2023-Apr-10.13043828) | 9.844e-05 | TDB |
period | 2056.784068091606 5.63 | 3.2538e-05 8.908e-08 | d yr |
n | .1750305273095718 | 2.769e-09 | deg/d |
Q | 3.889606788152122 | 4.1022e-08 | au |
|
| | Orbit Determination Parameters
Additional Information
|